[[{"header":{"parameterUnit":"m.s-1","parameterCategory":1,"la1":30.2991,"la2":30.254,"lo1":-89.0895,"lo2":-89.0444,"dy":0.0017,"dx":0.0017,"nx":28,"ny":28,"refTime":"2026-02-26T03:00:00:Z","depth":0,"parameterNumber":2,"parameterNumberName":"U-component_of_WINDS"},"data":[0,0,0,0,0,0,0,0,0,0,0,0,0,0,0,0,0,0,0,0,0,0,0,0,0,0,0,0,0,0,0,0,0,0,0,0,0,0,0,0,0,0,0,0,0,0,0,0,0,0,0,0,0,0,0,0,0,0,0.6361,0.636,0,0.6301,0.63,0.6299,0.6291,0.6292,0.6292,0.6293,0.6234,0.6232,0.623,0,0,0,0,0,0,0,0,0,0,0,0,0,0.6473,0.647,0.6361,0.636,0.6359,0.6301,0.63,0.6299,0.6291,0.6292,0.6293,0.6293,0.6235,0.6232,0.623,0,0,0,0,0,0,0,0,0,0,0,0,0,0.6419,0.647,0.6361,0.6348,0.6346,0.6301,0.63,0.6299,0.6291,0.6292,0.6293,0.6293,0.6236,0.6233,0.623,0.6193,0,0,0.622,0.6219,0,0,0,0,0,0,0,0,0.6422,0.6415,0.6351,0.6349,0.6347,0.6304,0.6318,0.6264,0.6291,0.6312,0.6293,0.6294,0.6257,0.6252,0.6239,0.6191,0.6188,0.622,0.6218,0.6216,0.6216,0,0,0,0,0,0,0,0.6426,0.6418,0.6337,0.635,0.6347,0.6347,0.634,0.6307,0.6281,0.631,0.631,0.6302,0.6256,0.6242,0.6238,0.6187,0.622,0.6217,0.6215,0.6214,0.6109,0.6108,0,0,0,0,0,0,0.6432,0.6421,0.6339,0.6335,0.6387,0.6344,0.6337,0.6317,0.6281,0.6276,0.6302,0.6302,0.6247,0.6241,0.6236,0.6193,0.6216,0.6214,0.6212,0.611,0.6109,0.6108,0,0,0,0,0,0,0.6434,0.6424,0.6341,0.6378,0.6367,0.6341,0.6319,0.6315,0.6301,0.6274,0.627,0.6292,0.6248,0.624,0.6204,0.619,0.6212,0.6209,0.6111,0.611,0.6108,0.6105,0,0,0,0,0,0,0.6437,0.6425,0.641,0.6378,0.6365,0.631,0.6318,0.6314,0.6296,0.6296,0.6264,0.626,0.6248,0.6209,0.6201,0.6186,0.6207,0.6112,0.611,0.6109,0.6107,0.6104,0.6102,0,0,0,0,0,0.6441,0.6412,0.6409,0.6399,0.6346,0.6309,0.6302,0.6288,0.6295,0.628,0.6263,0.6261,0.6193,0.6205,0.6197,0.6181,0.6113,0.6111,0.6109,0.6108,0.6104,0.6102,0,0,0,0,0,0,0.6444,0.6407,0.6404,0.6363,0.6339,0.6308,0.6289,0.6284,0.6259,0.626,0.6244,0.6237,0.6203,0.6188,0.6203,0.6145,0.6154,0.615,0.6156,0.6153,0.615,0.6155,0.6204,0,0,0,0,0,0.6439,0.6411,0.6381,0.6348,0.6336,0.6315,0.6298,0.6289,0.6264,0.6254,0.6235,0.6211,0.6185,0.6168,0.6142,0.6104,0.6099,0.6089,0.6087,0.6085,0.6082,0.6063,0.606,0.6101,0.6101,0.6101,0,0,0.643,0.6407,0.639,0.6348,0.6328,0.6302,0.6306,0.6277,0.6257,0.625,0.6215,0.62,0.6174,0.6137,0.612,0.6124,0.607,0.6083,0.6081,0.6079,0.6061,0.6057,0.6054,0.61,0.61,0.61,0,0,0.64,0.6378,0.6349,0.633,0.63,0.6286,0.628,0.6249,0.6239,0.6204,0.6198,0.6176,0.613,0.6112,0.6096,0.6062,0.606,0.6054,0.6042,0.6024,0.602,0.6018,0.6007,0.6003,0.6051,0.6051,0.6051,0,0.6392,0.635,0.6335,0.6306,0.6289,0.6281,0.6253,0.6235,0.6199,0.6188,0.6192,0.6136,0.6117,0.6078,0.607,0.6057,0.605,0.6057,0.6022,0.6019,0.6016,0.6006,0.6001,0.6051,0.6051,0.6051,0.6051,0,0.6344,0.6315,0.6295,0.626,0.624,0.6212,0.6194,0.6176,0.617,0.6156,0.6122,0.6099,0.607,0.606,0.6053,0.602,0.6023,0.6025,0.6033,0.6012,0.6002,0.5998,0.605,0.605,0.605,0.605,0,0,0.6312,0.627,0.6263,0.6249,0.6216,0.6194,0.6167,0.6137,0.6123,0.6099,0.6077,0.604,0.6042,0.6024,0.6016,0.6,0.5976,0.6004,0.6003,0.6001,0.5941,0.594,0.5936,0.5974,0.5973,0.5973,0.5943,0,0.6279,0.6228,0.6215,0.6172,0.6147,0.614,0.6116,0.6095,0.6082,0.606,0.6046,0.602,0.6024,0.6014,0.5997,0.5982,0.5964,0.5984,0.5955,0.5954,0.5963,0.593,0.5929,0.5902,0.5939,0.5938,0.5938,0,0.6233,0.6208,0.6163,0.6137,0.6125,0.6104,0.6077,0.6055,0.6032,0.6024,0.6006,0.5999,0.5972,0.5982,0.5945,0.5959,0.5947,0.5938,0.5936,0.5934,0.5945,0.5928,0.5893,0.589,0.5931,0.5932,0.5932,0,0.6217,0.6172,0.614,0.6127,0.6095,0.608,0.6066,0.6043,0.6028,0.6005,0.5994,0.5969,0.5955,0.5936,0.5924,0.5931,0.5889,0.5897,0.5883,0.5883,0.5874,0.5875,0.5838,0.5865,0.5865,0.5865,0.5865,0,0.6182,0.6155,0.6132,0.6113,0.6083,0.6069,0.6041,0.6027,0.6007,0.5986,0.5979,0.5959,0.5943,0.5922,0.5912,0.5885,0.5878,0.5872,0.587,0.5873,0.5874,0.5865,0.5867,0.5864,0.5864,0.5864,0.5864,0,0.6158,0.6142,0.6107,0.6079,0.6072,0.6052,0.6029,0.601,0.5998,0.5971,0.5964,0.5945,0.592,0.5905,0.5873,0.5867,0.5837,0.5835,0.5844,0.5844,0.5831,0.5833,0.5788,0.5782,0.5811,0.5811,0.581,0,0.6138,0.6117,0.6088,0.6073,0.6058,0.6034,0.6018,0.6004,0.5988,0.5961,0.5946,0.5921,0.5899,0.586,0.5844,0.582,0.5819,0.5805,0.5815,0.582,0.582,0.5822,0.5821,0.5803,0.5803,0.5802,0.5802,0,0.6103,0.6096,0.6073,0.6047,0.6028,0.6007,0.5986,0.5975,0.5958,0.594,0.5914,0.5898,0.5866,0.5842,0.5817,0.5804,0.5801,0.5799,0.5795,0.5798,0.5805,0.5803,0.5841,0.58,0.58,0.5801,0.5801,0.5801,0.6081,0.6063,0.604,0.6015,0.5998,0.5979,0.5961,0.5947,0.5925,0.5897,0.5891,0.5864,0.5844,0.581,0.5797,0.5777,0.578,0.5773,0.5771,0.577,0.5771,0.5808,0.5772,0.5772,0.5773,0.5773,0.5773,0,0.6047,0.6033,0.6009,0.5981,0.5962,0.596,0.5938,0.5922,0.5898,0.5879,0.5859,0.583,0.5807,0.5789,0.5766,0.5754,0.5752,0.5748,0.5749,0.5747,0.5769,0.5776,0.575,0.575,0.575,0.575,0.575,0.575,0.6028,0.5998,0.5989,0.5952,0.5937,0.5911,0.5899,0.5882,0.5867,0.5835,0.5816,0.5804,0.5786,0.5762,0.5741,0.5737,0.5729,0.5726,0.5721,0.5743,0.5745,0.5747,0.5754,0.5724,0.5724,0.5701,0.5701,0.5701]},{"header":{"parameterUnit":"m.s-1","parameterCategory":1,"la1":30.2991,"la2":30.254,"lo1":-89.0895,"lo2":-89.0444,"dy":0.0017,"dx":0.0017,"nx":28,"ny":28,"refTime":"2026-02-26T03:00:00:Z","depth":0,"parameterNumber":3,"parameterNumberName":"V-component_of_WINDS"},"data":[0,0,0,0,0,0,0,0,0,0,0,0,0,0,0,0,0,0,0,0,0,0,0,0,0,0,0,0,0,0,0,0,0,0,0,0,0,0,0,0,0,0,0,0,0,0,0,0,0,0,0,0,0,0,0,0,0,0,4.8134,4.8134,0,4.8144,4.8144,4.8144,4.8178,4.8178,4.8179,4.818,4.8184,4.8184,4.8183,0,0,0,0,0,0,0,0,0,0,0,0,0,4.8143,4.8143,4.8134,4.8135,4.8135,4.8144,4.8144,4.8144,4.8177,4.8178,4.8179,4.818,4.8184,4.8184,4.8183,0,0,0,0,0,0,0,0,0,0,0,0,0,4.8144,4.8142,4.8134,4.8153,4.8154,4.8144,4.8144,4.8144,4.8177,4.8178,4.818,4.8181,4.8185,4.8184,4.8183,4.8153,0,0,4.818,4.818,0,0,0,0,0,0,0,0,4.8144,4.8144,4.815,4.8151,4.8153,4.8161,4.8148,4.8147,4.8177,4.8168,4.818,4.8181,4.8175,4.8175,4.8174,4.8154,4.8154,4.818,4.8179,4.8179,4.8179,0,0,0,0,0,0,0,4.8144,4.8144,4.8138,4.815,4.8152,4.8159,4.8161,4.8148,4.8165,4.8169,4.8172,4.8173,4.8176,4.8175,4.8174,4.8154,4.818,4.8179,4.8178,4.8178,4.8113,4.8112,0,0,0,0,0,0,4.8142,4.8143,4.8138,4.8138,4.8152,4.8158,4.816,4.8157,4.8165,4.8168,4.8172,4.8174,4.8176,4.8175,4.8175,4.8143,4.8179,4.8178,4.8177,4.8114,4.8113,4.8111,0,0,0,0,0,0,4.8142,4.8141,4.8137,4.8142,4.8142,4.8157,4.8153,4.8157,4.8155,4.8167,4.817,4.8167,4.8177,4.8176,4.8159,4.8143,4.8178,4.8177,4.8115,4.8114,4.8112,4.8078,0,0,0,0,0,0,4.8142,4.8141,4.813,4.8141,4.8141,4.8123,4.8152,4.8156,4.8154,4.8158,4.8164,4.8166,4.8178,4.8161,4.8159,4.8143,4.8176,4.8117,4.8115,4.8112,4.808,4.8075,4.807,0,0,0,0,0,4.8142,4.8119,4.813,4.8129,4.8129,4.8122,4.8122,4.8137,4.8153,4.8142,4.815,4.8166,4.8145,4.8159,4.8157,4.814,4.8118,4.8115,4.8113,4.8083,4.8076,4.8071,0,0,0,0,0,0,4.8103,4.812,4.8133,4.8112,4.8116,4.8127,4.8114,4.8129,4.8127,4.813,4.8148,4.8149,4.813,4.8133,4.8148,4.8114,4.8134,4.8131,4.8112,4.8106,4.8101,4.8101,4.8175,0,0,0,0,0,4.8093,4.8087,4.8101,4.8082,4.8083,4.8099,4.8096,4.8108,4.8111,4.8112,4.8119,4.8121,4.8115,4.8111,4.8106,4.8081,4.8083,4.8069,4.8064,4.806,4.8057,4.8046,4.804,4.8103,4.8103,4.8103,0,0,4.807,4.8079,4.8073,4.8074,4.8078,4.8072,4.8099,4.809,4.8085,4.811,4.8097,4.8101,4.8104,4.8084,4.8076,4.8086,4.804,4.8056,4.8053,4.8052,4.8043,4.8037,4.8031,4.8101,4.8101,4.8101,0,0,4.8025,4.8031,4.8017,4.8021,4.8028,4.8038,4.8035,4.8045,4.805,4.8037,4.8057,4.805,4.804,4.8042,4.8041,4.8001,4.8015,4.7998,4.7972,4.7962,4.7957,4.7953,4.7939,4.7934,4.7995,4.7995,4.7995,0,4.7996,4.7987,4.8006,4.7997,4.7998,4.8023,4.8009,4.8011,4.8015,4.8014,4.8027,4.8016,4.8019,4.8002,4.7992,4.799,4.7987,4.7998,4.7956,4.7952,4.7948,4.7936,4.7931,4.7993,4.7994,4.7994,4.7994,0,4.7951,4.7945,4.7933,4.7939,4.7938,4.7925,4.7943,4.7939,4.7952,4.7961,4.7948,4.7954,4.7952,4.7948,4.7959,4.7932,4.7939,4.7953,4.7975,4.794,4.7929,4.7924,4.799,4.7991,4.7992,4.7992,0,0,4.7881,4.7901,4.7896,4.79,4.791,4.7905,4.7895,4.7895,4.7892,4.7894,4.7886,4.7878,4.7893,4.7892,4.7904,4.7895,4.7864,4.7911,4.7911,4.7903,4.7837,4.7827,4.7821,4.7874,4.7873,4.7873,4.7837,0,4.784,4.7825,4.7843,4.7823,4.7819,4.7844,4.7835,4.784,4.7849,4.7846,4.7855,4.785,4.7869,4.7869,4.7861,4.787,4.7851,4.7872,4.7867,4.7866,4.7866,4.7815,4.7803,4.7769,4.7833,4.7832,4.7831,0,4.7789,4.7793,4.7773,4.7788,4.7787,4.7778,4.7781,4.7778,4.7785,4.7792,4.7793,4.7808,4.7799,4.782,4.7807,4.7821,4.782,4.7824,4.7823,4.7824,4.7847,4.7815,4.7759,4.7754,4.7824,4.7825,4.7825,0,4.7742,4.7741,4.773,4.7733,4.7749,4.7743,4.7749,4.7757,4.7757,4.7759,4.7759,4.7759,4.7759,4.7759,4.7774,4.7788,4.776,4.7782,4.7766,4.7766,4.7759,4.7759,4.7703,4.7757,4.7757,4.7757,4.7757,0,4.7695,4.7682,4.771,4.7703,4.769,4.7711,4.7697,4.7706,4.7714,4.7709,4.7729,4.7724,4.7744,4.7741,4.7752,4.7741,4.7741,4.7746,4.775,4.7745,4.7745,4.7745,4.7748,4.7755,4.7756,4.7756,4.7756,0,4.7639,4.7657,4.7647,4.7664,4.7668,4.7658,4.7673,4.7667,4.7678,4.7672,4.7672,4.7689,4.7687,4.7702,4.7701,4.7709,4.7693,4.77,4.7691,4.7694,4.7678,4.768,4.762,4.7614,4.7671,4.767,4.767,0,4.7608,4.76,4.7617,4.7617,4.7622,4.762,4.7622,4.7642,4.7642,4.7651,4.7644,4.7644,4.7645,4.764,4.7652,4.7653,4.766,4.764,4.766,4.7657,4.7662,4.7662,4.7662,4.7635,4.7634,4.7634,4.7633,0,4.7552,4.7562,4.7563,4.7568,4.757,4.7574,4.758,4.7577,4.76,4.7599,4.7598,4.7599,4.7601,4.7601,4.7604,4.761,4.7625,4.7627,4.7624,4.7619,4.7616,4.7619,4.7681,4.7628,4.7629,4.7629,4.7629,4.763,4.7508,4.7503,4.7516,4.7517,4.7524,4.753,4.7526,4.7538,4.7539,4.7543,4.7555,4.7553,4.7561,4.7568,4.7572,4.757,4.758,4.7575,4.7574,4.7572,4.757,4.7616,4.7571,4.7571,4.7571,4.7571,4.7571,0,4.7454,4.7464,4.7466,4.7475,4.7476,4.7493,4.7501,4.75,4.7499,4.7507,4.7508,4.7508,4.7509,4.7522,4.7525,4.7521,4.7528,4.7521,4.7522,4.7523,4.756,4.7564,4.7515,4.7515,4.7515,4.7515,4.7515,4.7515,4.7426,4.7419,4.7431,4.7428,4.7438,4.7437,4.7441,4.7446,4.7453,4.7453,4.7454,4.7464,4.7474,4.7478,4.7479,4.7483,4.7483,4.7474,4.748,4.7515,4.752,4.7525,4.7529,4.7473,4.7473,4.7443,4.7443,4.7443]}]]